�N����,����,�~����,�C��,���x,�C��,����,���ϕ���,�ő�u�ԕ���,�ő厞����,���˗�,�I�_���x,�n�����x,�ő啗���N��,DTYPE
"22/08/05","00:10",0.0,25.0,94.1,1001.9,327.4,0.7,1.2,332.1,0.00,24.0,26.5,"00:05:28",1
"22/08/05","00:20",0.0,25.0,94.1,1001.9,294.5,0.8,2.5,347.6,0.00,24.0,26.5,"00:16:08",1
"22/08/05","00:30",0.0,25.0,94.2,1001.9,326.7,1.0,1.6,339.1,0.00,24.0,26.4,"00:22:16",1
"22/08/05","00:40",0.0,25.0,94.2,1001.7,321.0,0.8,1.3,347.3,0.00,24.0,26.4,"00:36:24",1
"22/08/05","00:50",0.0,24.9,94.2,1001.7,318.9,0.7,1.6,336.6,0.00,23.9,26.5,"00:47:52",1
"22/08/05","01:00",0.0,24.8,94.3,1001.5,322.9,1.0,1.6,336.7,0.00,23.9,26.7,"00:58:16",1
"22/08/05","01:10",0.0,24.7,94.4,1001.5,337.8,1.0,1.4,1.2,0.00,23.8,26.4,"01:03:36",1
"22/08/05","01:20",0.0,24.7,94.5,1001.5,346.6,0.6,1.3,340.6,0.00,23.8,26.4,"01:13:20",1
"22/08/05","01:30",0.0,24.8,94.5,1001.2,351.4,0.8,1.8,19.3,0.00,23.9,26.3,"01:22:56",1
"22/08/05","01:40",0.0,24.7,94.6,1001.5,335.5,0.8,1.8,350.9,0.00,23.8,26.2,"01:36:16",1
"22/08/05","01:50",0.0,24.6,94.6,1001.5,318.5,0.8,1.8,338.7,0.00,23.7,26.5,"01:40:08",1
"22/08/05","02:00",0.0,24.7,94.7,1001.2,335.1,1.2,3.3,346.5,0.00,23.8,26.4,"01:59:44",1
"22/08/05","02:10",0.0,24.8,94.6,1001.2,339.7,1.3,2.6,322.5,0.00,23.9,26.2,"02:00:24",1
"22/08/05","02:20",0.0,24.6,94.7,1001.2,352.9,0.8,1.8,347.8,0.00,23.7,26.4,"02:18:16",1
"22/08/05","02:30",0.0,24.5,94.7,1001.2,316.5,0.6,1.3,348.7,0.00,23.6,26.4,"02:23:28",1
"22/08/05","02:40",0.0,24.3,94.8,1000.8,282.9,0.3,0.8,315.0,0.00,23.5,26.0,"02:35:52",1
"22/08/05","02:50",0.0,24.2,94.9,1000.8,319.4,0.6,1.4,323.8,0.00,23.4,26.2,"02:49:04",1
"22/08/05","03:00",0.0,24.2,94.9,1000.8,343.5,1.0,1.6,337.5,0.00,23.4,26.4,"02:50:16",1
"22/08/05","03:10",0.0,24.1,94.9,1001.0,339.4,1.5,2.0,340.3,0.00,23.3,26.3,"03:08:16",1
"22/08/05","03:20",0.0,24.2,95.1,1001.0,298.2,1.0,1.4,334.7,0.00,23.4,26.1,"03:11:04",1
"22/08/05","03:30",0.0,24.1,95.1,1000.8,286.0,1.0,1.4,264.4,0.00,23.3,26.1,"03:22:00",1
"22/08/05","03:40",0.0,24.3,95.1,1000.5,332.3,1.3,2.1,335.8,0.00,23.5,26.3,"03:34:24",1
"22/08/05","03:50",0.0,24.3,95.1,1000.8,335.6,1.0,1.4,338.2,0.00,23.5,26.2,"03:48:40",1
"22/08/05","04:00",0.0,24.5,95.2,1000.8,348.8,1.0,1.9,14.0,0.00,23.7,26.1,"03:53:20",1
"22/08/05","04:10",0.0,24.6,95.2,1001.0,330.4,1.5,3.1,348.4,0.00,23.8,26.0,"04:03:44",1
"22/08/05","04:20",0.0,24.6,95.2,1001.5,343.8,1.3,2.6,340.0,0.00,23.8,25.9,"04:10:40",1
"22/08/05","04:30",0.0,24.6,95.2,1001.2,328.0,1.5,2.1,333.5,0.00,23.8,26.2,"04:20:16",1
"22/08/05","04:40",0.0,24.6,95.2,1001.2,306.7,1.2,2.0,325.9,0.00,23.8,26.0,"04:37:44",1
"22/08/05","04:50",0.0,24.5,95.2,1001.0,336.1,1.6,3.4,340.8,0.00,23.7,25.8,"04:46:00",1
"22/08/05","05:00",0.0,24.5,95.3,1001.2,295.5,1.0,1.6,341.9,0.00,23.7,25.8,"04:53:44",1
"22/08/05","05:10",0.0,24.5,95.3,1001.0,324.6,1.3,2.0,326.1,0.00,23.7,25.9,"05:09:12",1
"22/08/05","05:20",0.0,24.5,95.3,1001.2,307.0,1.1,1.8,300.7,0.00,23.7,26.1,"05:15:20",1
"22/08/05","05:30",0.0,24.5,95.3,1001.2,323.3,1.3,2.4,328.2,0.00,23.7,26.0,"05:24:00",1
"22/08/05","05:40",0.0,24.4,95.3,1001.2,342.3,1.7,2.7,355.8,0.00,23.6,25.9,"05:36:32",1
"22/08/05","05:50",0.0,24.4,95.3,1001.2,339.6,1.6,2.5,335.6,0.00,23.6,26.2,"05:41:28",1
"22/08/05","06:00",0.0,24.6,95.3,1001.7,326.4,1.5,2.5,328.5,0.00,23.8,26.0,"05:52:56",1
"22/08/05","06:10",0.0,24.6,95.2,1001.7,285.1,0.8,2.9,256.2,0.00,23.8,25.6,"06:09:36",1
"22/08/05","06:20",0.0,24.5,95.3,1001.5,286.9,1.0,2.2,262.1,0.00,23.7,26.0,"06:10:16",1
"22/08/05","06:30",0.0,24.6,95.2,1001.7,307.1,1.2,1.7,322.1,0.00,23.8,26.0,"06:22:48",1
"22/08/05","06:40",0.0,24.6,95.2,1001.7,336.3,1.2,1.9,341.3,0.00,23.8,25.8,"06:35:12",1
"22/08/05","06:50",0.0,24.7,95.2,1001.9,344.3,1.0,1.9,332.4,0.01,23.9,26.0,"06:41:04",1
"22/08/05","07:00",0.0,25.0,95.2,1001.5,355.2,1.0,2.6,337.8,0.01,24.2,26.0,"06:50:02",1
"22/08/05","07:10",0.0,25.1,95.1,1001.7,335.1,1.3,2.1,333.3,0.01,24.3,25.9,"07:07:28",1
"22/08/05","07:20",0.0,25.1,95.0,1001.7,331.6,1.2,2.0,329.8,0.00,24.3,26.0,"07:14:00",1
"22/08/05","07:30",0.0,25.3,95.0,1001.7,326.8,0.7,1.4,340.2,0.03,24.5,26.0,"07:26:32",1
"22/08/05","07:40",0.0,25.3,94.9,1001.5,335.8,1.3,2.2,330.2,0.02,24.5,25.9,"07:32:40",1
"22/08/05","07:50",0.0,25.5,94.8,1001.7,337.1,1.0,1.9,335.0,0.01,24.6,25.9,"07:48:16",1
"22/08/05","08:00",0.0,25.4,94.7,1001.9,324.8,1.5,2.1,331.3,0.01,24.5,25.9,"07:56:24",1
"22/08/05","08:10",0.0,25.3,94.6,1002.2,323.4,1.6,2.8,340.4,0.02,24.4,26.0,"08:00:40",1
"22/08/05","08:20",0.0,25.3,94.5,1002.2,307.9,1.6,3.1,285.8,0.02,24.4,25.8,"08:18:08",1
"22/08/05","08:30",0.0,25.4,94.3,1002.2,342.0,2.0,3.2,353.8,0.01,24.5,25.8,"08:23:52",1
"22/08/05","08:40",0.0,25.4,94.1,1002.2,325.8,1.6,4.0,327.2,0.02,24.4,26.0,"08:36:48",1
"22/08/05","08:50",0.0,25.4,93.9,1001.9,324.8,2.1,4.2,345.1,0.03,24.4,25.9,"08:40:32",1
"22/08/05","09:00",0.0,25.7,93.7,1001.7,332.1,1.2,3.3,339.6,0.03,24.6,25.8,"08:50:40",1
"22/08/05","09:10",0.0,25.9,93.5,1001.7,305.1,0.6,1.2,342.0,0.02,24.8,25.9,"09:02:40",1
"22/08/05","09:20",0.2,25.9,93.3,1001.5,329.6,0.7,1.8,354.3,0.02,24.8,25.9,"09:16:40",1
"22/08/05","09:30",0.2,26.0,93.2,1001.7,348.1,1.2,2.2,352.2,0.03,24.9,25.9,"09:26:16",1
"22/08/05","09:40",0.6,25.9,93.1,1001.9,9.0,0.6,1.6,349.6,0.04,24.7,25.9,"09:32:16",1
"22/08/05","09:50",0.2,26.2,93.0,1001.7,353.9,0.2,0.8,358.5,0.04,25.0,26.0,"09:43:04",1
"22/08/05","10:00",0.0,26.1,92.9,1001.9,78.0,0.2,0.8,123.5,0.03,24.9,25.9,"09:56:16",1
"22/08/05","10:10",0.0,26.2,92.8,1001.7,278.3,0.2,0.8,154.7,0.02,25.0,26.0,"10:04:16",1
"22/08/05","10:20",0.0,26.3,92.8,1001.9,264.9,0.2,0.5,295.5,0.07,25.1,25.9,"10:10:16",1
"22/08/05","10:30",0.0,26.3,92.6,1002.2,348.9,0.7,1.3,7.8,0.06,25.0,25.8,"10:23:52",1
"22/08/05","10:40",0.0,26.2,92.4,1002.2,358.2,0.8,1.3,359.0,0.03,24.9,25.9,"10:32:00",1
"22/08/05","10:50",0.0,26.3,92.3,1002.4,348.2,0.5,1.2,345.5,0.02,25.0,25.8,"10:47:28",1
"22/08/05","11:00",0.0,26.3,92.2,1001.9,326.1,0.8,1.4,340.5,0.01,25.0,25.8,"10:56:24",1
"22/08/05","11:10",0.0,26.3,92.2,1001.9,303.5,1.0,1.7,328.7,0.01,25.0,25.8,"11:06:08",1
"22/08/05","11:20",0.0,26.4,92.3,1001.9,290.3,0.8,2.0,321.2,0.06,25.1,25.7,"11:15:20",1
"22/08/05","11:30",0.0,26.4,92.1,1001.9,309.7,1.1,1.8,332.5,0.06,25.1,25.7,"11:23:52",1
"22/08/05","11:40",0.0,26.5,91.9,1001.7,337.5,0.8,1.7,332.3,0.05,25.1,25.9,"11:32:48",1
"22/08/05","11:50",0.0,26.8,91.8,1001.7,320.1,1.2,2.1,340.8,0.05,25.4,26.1,"11:44:00",1
"22/08/05","12:00",0.0,26.9,91.7,1001.7,333.8,1.6,3.9,326.4,0.09,25.5,26.1,"11:54:00",1
"22/08/05","12:10",0.0,27.2,91.5,1001.7,4.0,0.8,2.6,347.9,0.10,25.7,26.0,"12:03:20",1
"22/08/05","12:20",0.0,27.9,91.1,1001.5,117.0,0.6,1.4,105.2,0.19,26.4,26.1,"12:16:40",1
"22/08/05","12:30",0.2,28.3,90.4,1000.8,199.9,0.6,1.7,112.9,0.31,26.6,26.0,"12:21:28",1
"22/08/05","12:40",0.0,28.9,87.7,1000.8,181.9,0.8,1.9,217.7,0.34,26.7,25.9,"12:36:56",1
"22/08/05","12:50",0.0,29.8,85.9,1001.0,177.4,1.0,2.4,206.3,0.50,27.2,25.7,"12:42:00",1
"22/08/05","13:00",0.0,30.7,80.8,1001.7,169.5,0.7,2.1,230.7,0.55,27.1,26.0,"12:57:04",1
"22/08/05","13:10",0.0,31.1,75.2,1001.9,205.7,1.2,2.5,230.5,0.53,26.2,26.0,"13:02:32",1
"22/08/05","13:20",0.0,32.0,73.4,1002.2,33.2,1.1,2.7,0.1,0.57,26.7,26.0,"13:17:04",1
"22/08/05","13:30",0.0,32.8,69.7,1002.4,20.8,0.8,2.1,358.5,0.63,26.6,26.0,"13:21:36",1
"22/08/05","13:40",0.0,32.5,67.5,1001.9,33.8,1.0,2.4,4.3,0.43,25.7,26.2,"13:34:00",1
"22/08/05","13:50",0.0,32.6,67.3,1001.7,90.8,0.8,2.8,206.1,0.37,25.8,26.2,"13:40:02",1
"22/08/05","14:00",0.0,31.5,71.1,1001.2,127.4,1.1,2.8,199.6,0.22,25.7,26.3,"13:50:16",1
"22/08/05","14:10",0.0,30.7,71.8,1000.8,151.6,0.8,3.1,124.7,0.18,25.1,26.3,"14:02:40",1
"22/08/05","14:20",0.0,30.9,72.5,1000.5,21.2,1.0,2.6,5.2,0.13,25.4,26.4,"14:16:08",1
"22/08/05","14:30",0.0,31.8,72.0,1000.5,25.3,0.8,2.1,347.4,0.46,26.2,26.4,"14:23:04",1
"22/08/05","14:40",0.0,33.0,68.6,1001.0,348.5,0.8,2.2,354.4,0.52,26.5,26.2,"14:34:32",1
"22/08/05","14:50",0.0,33.0,65.2,1000.8,335.4,0.8,2.1,337.2,0.48,25.6,26.7,"14:48:00",1
"22/08/05","15:00",0.0,33.4,63.1,1000.8,46.0,0.8,2.4,27.8,0.48,25.5,26.4,"14:55:28",1
"22/08/05","15:10",0.0,33.5,61.5,1000.8,232.0,0.8,1.8,236.5,0.43,25.1,26.4,"15:05:12",1
"22/08/05","15:20",0.0,32.9,61.9,1000.5,297.1,0.6,2.1,329.5,0.19,24.7,26.6,"15:16:16",1
"22/08/05","15:30",0.0,32.9,63.4,1000.8,92.4,0.6,1.6,129.2,0.24,25.1,26.6,"15:27:20",1
"22/08/05","15:40",0.0,32.9,62.9,1000.8,68.6,0.6,1.9,70.3,0.19,24.9,26.6,"15:31:12",1
"22/08/05","15:50",0.0,32.6,65.4,1000.5,14.8,1.0,1.9,2.9,0.07,25.3,26.6,"15:46:32",1
"22/08/05","16:00",0.0,31.9,67.8,1000.3,344.5,1.0,1.4,3.9,0.07,25.2,26.7,"15:50:08",1
"22/08/05","16:10",0.0,32.5,65.6,1000.3,62.4,0.6,1.6,133.0,0.27,25.3,26.7,"16:08:48",1
"22/08/05","16:20",0.0,33.3,64.1,1000.3,168.4,0.5,1.1,174.4,0.23,25.6,26.8,"16:19:04",1
"22/08/05","16:30",0.0,31.9,67.3,1000.5,202.9,1.6,3.4,204.2,0.08,25.1,26.7,"16:26:08",1
"22/08/05","16:40",0.0,31.1,70.8,1000.0,200.7,1.8,3.3,210.7,0.11,25.2,26.7,"16:37:20",1
"22/08/05","16:50",0.0,30.7,72.6,1000.0,185.0,1.3,3.4,209.0,0.05,25.2,26.7,"16:42:40",1
"22/08/05","17:00",0.0,30.2,71.4,999.6,234.6,2.1,4.8,235.8,0.02,24.5,26.8,"16:54:32",1
"22/08/05","17:10",2.8,29.5,74.3,998.9,254.6,1.6,4.5,235.9,0.04,24.5,26.8,"17:02:08",1
"22/08/05","17:20",3.6,27.9,79.3,999.1,277.0,1.0,3.4,233.9,0.09,24.0,26.7,"17:11:04",1
"22/08/05","17:30",1.0,28.4,82.3,998.9,148.7,0.5,1.1,11.6,0.17,25.1,26.8,"17:29:36",1
"22/08/05","17:40",0.0,28.7,84.1,998.6,24.7,0.6,1.7,16.9,0.18,25.8,26.8,"17:33:04",1
"22/08/05","17:50",0.0,29.0,83.5,998.2,250.1,0.6,1.6,140.3,0.14,26.0,26.9,"17:48:24",1
"22/08/05","18:00",0.0,28.7,83.3,998.6,158.8,0.6,1.3,191.4,0.07,25.6,26.8,"17:50:40",1
"22/08/05","18:10",0.0,28.2,83.7,998.9,181.4,0.7,1.6,130.1,0.04,25.2,26.9,"18:08:00",1
"22/08/05","18:20",0.0,27.9,84.6,999.3,174.9,0.8,2.4,151.8,0.05,25.1,26.8,"18:13:04",1
"22/08/05","18:30",0.0,28.1,84.9,999.6,192.1,0.7,2.0,155.0,0.04,25.4,26.7,"18:25:52",1
"22/08/05","18:40",0.0,28.2,85.2,999.6,19.5,0.3,1.6,352.3,0.03,25.5,26.7,"18:37:44",1
"22/08/05","18:50",0.0,28.0,85.4,999.3,2.0,0.8,1.8,349.0,0.02,25.4,26.6,"18:46:56",1
"22/08/05","19:00",0.0,27.8,85.8,999.6,14.2,0.5,1.1,2.2,0.01,25.2,26.8,"18:53:04",1
"22/08/05","19:10",0.0,27.6,86.1,999.6,341.2,0.8,1.8,339.4,0.01,25.1,26.7,"19:06:24",1
"22/08/05","19:20",0.0,27.5,86.4,999.6,310.7,0.7,1.3,333.2,0.00,25.1,26.7,"19:16:48",1
"22/08/05","19:30",0.0,27.5,87.2,999.8,335.0,1.2,1.8,349.3,0.00,25.2,26.8,"19:24:56",1
"22/08/05","19:40",0.0,27.2,88.0,999.8,339.4,1.6,3.3,345.6,0.00,25.1,26.6,"19:36:00",1
"22/08/05","19:50",0.0,26.7,88.7,1000.0,334.1,1.1,1.6,332.6,0.00,24.7,27.0,"19:49:36",1
"22/08/05","20:00",0.0,26.7,89.4,1000.3,347.3,1.2,2.0,347.8,0.00,24.8,26.6,"19:59:36",1
"22/08/05","20:10",0.0,26.5,89.8,1000.0,325.1,1.1,1.7,334.7,0.00,24.7,26.8,"20:02:48",1
"22/08/05","20:20",0.0,26.4,90.2,1000.0,333.4,1.0,1.6,317.4,0.00,24.7,26.7,"20:17:04",1
"22/08/05","20:30",0.0,26.4,90.5,1000.3,318.4,1.0,1.4,353.1,0.00,24.8,26.7,"20:20:24",1
"22/08/05","20:40",0.0,26.2,90.8,1000.5,312.7,1.0,1.9,338.4,0.00,24.6,26.7,"20:30:56",1
"22/08/05","20:50",0.0,26.1,91.2,1000.3,315.9,0.6,1.3,316.3,0.00,24.6,26.7,"20:40:02",1
"22/08/05","21:00",0.0,26.1,91.5,1000.8,301.8,1.1,2.1,321.8,0.00,24.6,26.4,"20:54:56",1
"22/08/05","21:10",0.0,26.0,91.7,1000.5,306.5,1.0,1.4,329.5,0.00,24.6,26.6,"21:09:20",1
"22/08/05","21:20",0.0,25.8,91.9,1000.8,286.0,1.0,1.7,324.5,0.00,24.4,26.5,"21:12:56",1
"22/08/05","21:30",0.0,25.7,92.2,1001.0,308.0,1.0,2.1,324.0,0.00,24.4,26.5,"21:24:16",1
"22/08/05","21:40",0.0,25.6,92.4,1001.2,302.2,1.0,1.6,326.6,0.00,24.3,26.5,"21:32:32",1
"22/08/05","21:50",0.0,25.5,92.6,1001.5,316.1,1.1,1.8,317.9,0.00,24.3,26.5,"21:45:04",1
"22/08/05","22:00",0.0,25.5,92.8,1001.5,300.9,1.0,1.8,322.6,0.00,24.3,26.6,"21:59:36",1
"22/08/05","22:10",0.0,25.4,93.0,1001.2,315.8,1.3,2.5,343.4,0.00,24.2,26.6,"22:01:12",1
"22/08/05","22:20",0.0,25.4,93.1,1001.5,208.7,0.3,1.4,315.6,0.00,24.2,26.4,"22:10:32",1
"22/08/05","22:30",0.0,25.5,93.2,1001.2,323.1,1.1,1.7,323.0,0.00,24.4,26.5,"22:22:16",1
"22/08/05","22:40",0.0,25.4,93.3,1001.5,296.7,0.5,1.0,322.6,0.00,24.3,26.5,"22:30:24",1
"22/08/05","22:50",0.0,25.3,93.4,1001.7,311.6,0.5,0.9,325.5,0.00,24.2,26.6,"22:47:36",1
"22/08/05","23:00",0.0,25.5,93.5,1001.5,324.9,1.1,1.7,330.4,0.00,24.4,26.5,"22:57:12",1
"22/08/05","23:10",0.0,25.3,93.5,1001.5,309.3,1.0,1.6,323.7,0.00,24.2,26.5,"23:04:24",1
"22/08/05","23:20",0.0,25.2,93.7,1001.5,308.6,0.8,1.3,314.4,0.00,24.2,26.3,"23:10:16",1
"22/08/05","23:30",0.0,25.1,93.8,1001.2,308.1,0.7,1.3,308.9,0.00,24.1,26.4,"23:21:36",1
"22/08/05","23:40",0.0,25.1,93.8,1001.7,279.7,0.6,1.1,275.3,0.00,24.1,26.5,"23:30:40",1
"22/08/05","23:50",0.0,25.0,93.9,1001.7,325.3,0.6,1.0,315.3,0.00,24.0,26.6,"23:44:40",1
"22/08/05","24:00",0.0,25.0,94.1,1002.2,301.3,0.7,1.6,324.2,0.00,24.0,26.3,"23:59:44",1
